CAPE
5 8 6 0 0 7 2 0 0 0 0 0 0 0 0 0 1 1 0 0 0 1 0 0 0 0 0 0 0 0 0 0 0 0 0 0 0 6 5 0 0 0 0 0 0 0 0 0 0 0 0 0 0 0
3 1 5 1 2 4 2 0 0 0 0 0 0 0 0 2 7 11 4 0 0 3 0 0 0 0 0 0 0 0 0 0 0 0 0 0 0 1 2 0 0 0 4 8 0 0 0 0 0 0 0 0 0 0
1 4 12 8 4 0 0 0 0 0 0 1 1 0 4 11 18 21 8 9 3 2 1 4 0 0 0 0 0 1 0 4 0 0 0 1 2 1 0 0 0 0 0 0 0 0 0 0 0 0 0 0 0 0
0 10 12 2 0 0 0 0 0 3 0 0 2 6 19 8 3 3 15 0 5 2 0 0 0 0 0 0 0 0 0 0 0 0 0 0 3 0 0 0 0 0 0 0 0 0 0 0 0 0 0 0 0 0
11 5 6 1 11 12 7 0 0 0 1 3 14 13 6 2 2 4 0 0 0 2 0 0 0 0 0 0 0 0 1 3 4 0 0 0 0 1 0 0 0 0 0 0 0 0 0 0 0 0 0 0 0 0
4 26 22 25 15 7 2 0 0 0 11 9 16 28 20 14 4 0 3 1 1 1 0 0 0 0 0 0 0 0 0 2 1 1 0 0 1 2 0 0 0 0 0 0 0 0 0 0 0 0 0 0 0 0
5 20 6 0 0 0 0 1 0 2 8 4 3 8 22 13 0 0 0 0 3 1 0 0 0 0 0 0 0 0 0 0 0 0 0 2 1 4 0 1 0 0 0 0 0 0 0 0 0 0 0 0 0 0
0 2 3 0 0 0 0 0 0 0 1 2 0 0 0 0 8 12 4 3 1 0 0 2 0 0 0 0 0 0 0 0 0 0 1 1 1 0 0 0 0 0 0 0 0 0 0 0 0 0 0 0 0 0
0 1 8 0 0 0 0 0 0 0 0 0 0 0 0 18 4 0 0 4 0 1 0 0 0 0 0 0 0 0 0 2 0 0 3 2 1 0 0 0 0 0 1 1 1 0 0 0 0 0 0 0 0 0
4 3 1 4 2 0 0 0 0 0 0 0 0 4 1 1 0 0 1 0 0 0 0 2 0 0 0 0 2 5 0 0 0 0 0 0 0 0 0 2 2 1 0 2 1 2 1 0 0 0 0 0 0 0
7 6 4 5 3 0 1 0 0 0 3 1 2 1 0 0 0 1 0 1 0 0 0 0 0 0 0 0 0 0 0 0 0 0 0 0 0 1 2 1 2 1 1 2 1 1 1 1 0 0 0 0 0 1
0 5 5 2 1 0 1 0 0 0 1 0 1 4 5 4 0 0 0 0 0 0 0 0 0 0 0 0 1 0 0 0 0 1 0 0 0 2 1 1 0 1 1 2 2 2 1 0 0 0 1 0 2 1
16 9 5 3 0 2 1 0 0 0 0 3 1 0 0 0 0 2 0 0 0 0 0 1 0 1 0 0 0 0 1 0 0 0 0 0 1 2 1 0 0 1 1 1 0 1 1 0 0 0 0 0 0 1
4 13 3 1 1 2 0 0 0 0 0 0 1 0 0 0 0 0 0 0 0 0 0 0 0 0 1 1 0 0 0 0 0 0 0 0 1 0 0 0 0 0 0 0 1 1 1 1 1 1 1 1 1 1
12 11 0 0 1 0 0 0 0 0 0 0 0 0 0 0 0 0 0 1 0 0 0 2 0 1 0 0 0 0 0 0 0 1 0 1 1 1 0 1 1 1 1 1 1 1 1 1 0 1 1 1 1 0
8 7 0 0 0 0 0 0 2 0 0 0 0 0 0 0 0 0 0 0 0 0 0 0 0 0 0 0 0 0 0 0 0 0 0 0 2 3 1 1 0 1 1 1 1 2 2 1 1 1 0 0 0 0
6 0 3 0 0 0 0 0 2 1 0 3 0 0 0 0 0 0 0 0 0 0 0 0 0 0 0 0 0 0 0 0 0 0 1 0 3 1 1 1 2 2 1 0 0 0 0 0 0 0 0 0 0 0
5 0 3 0 0 4 1 0 3 0 0 0 0 0 0 0 0 0 0 0 0 0 1 0 0 0 0 0 0 0 0 0 0 1 0 1 2 0 0 0 1 0 0 0 0 0 0 0 0 0 0 0 0 0
0 0 1 0 0 0 6 0 0 0 0 0 0 0 0 0 0 0 0 0 0 0 0 0 0 0 0 0 0 0 0 0 0 1 1 0 0 0 0 0 0 0 0 0 0 0 0 0 0 0 0 0 0 0
0 0 0 0 2 0 1 3 0 0 0 1 0 0 0 0 0 0 0 0 2 0 4 0 0 0 0 0 0 0 0 0 0 0 1 0 0 0 0 0 0 0 0 0 0 0 0 0 0 0 0 0 0 0
0 0 0 0 0 1 0 0 0 0 0 0 0 0 0 0 0 3 2 0 0 0 0 0 0 0 0 0 0 0 0 0 0 0 0 1 0 0 0 0 0 0 0 0 0 0 0 0 0 0 0 0 0 0
0 2 0 0 0 0 0 0 0 0 0 0 0 0 0 0 0 0 0 1 1 0 0 0 0 0 0 0 0 0 0 0 0 0 0 0 0 0 0 0 0 0 0 0 0 0 0 0 0 0 0 0 0 0
0 0 1 0 0 3 1 0 0 0 6 8 2 5 4 0 0 0 3 0 0 0 0 0 0 0 0 0 0 0 0 0 0 0 0 0 0 0 0 0 0 0 0 0 0 0 0 0 0 0 0 0 0 0
0 0 17 23 5 1 0 0 0 0 1 6 7 11 0 0 0 0 0 0 0 0 0 0 0 0 0 0 0 0 0 0 0 0 0 0 0 0 0 0 0 0 0 0 0 0 0 0 0 0 0 0 0 0
5 0 0 2 0 0 0 0 0 0 0 0 5 2 0 0 0 0 0 0 0 0 0 0 0 0 0 0 0 0 0 0 0 0 0 0 0 0 0 0 0 0 0 0 0 0 0 0 0 0 0 0 0 0
0 0 0 0 0 0 0 0 0 0 0 0 0 1 0 0 0 0 0 0 0 0 0 0 0 0 0 0 0 0 0 0 0 0 0 0 0 0 0 0 0 0 0 0 0 0 0 0 0 0 0 0 0 0
0 0 0 0 0 0 0 0 0 0 0 0 1 0 0 0 0 0 0 0 0 0 0 0 0 0 0 0 0 0 0 0 0 0 0 0 0 0 0 0 0 0 0 0 0 0 0 0 0 0 0 0 0 0
0 0 0 0 0 0 0 0 0 0 0 0 0 1 0 0 0 0 0 0 0 0 0 0 0 0 0 0 0 0 0 0 0 0 0 0 0 0 0 0 0 0 0 0 0 0 0 0 0 0 0 0 0 0
0 0 0 0 0 0 0 0 0 0 0 0 0 0 0 0 1 2 1 0 0 0 0 0 0 0 0 0 0 0 0 0 0 0 0 0 0 0 0 0 0 0 0 0 0 0 0 0 0 0 0 0 0 0
0 0 0 0 0 0 0 0 0 0 0 0 0 0 0 0 0 0 0 0 0 0 0 0 0 0 0 0 0 0 0 0 0 0 0 0 0 0 0 0 0 0 0 0 0 0 0 0 0 0 0 0 0 0
0 0 0 0 0 0 0 0 0 0 0 0 0 0 0 0 0 0 0 0 0 0 0 0 0 0 0 0 0 0 0 0 0 0 0 0 0 0 0 0 0 0 0 0 0 0 0 0 0 0 0 0 0 0
0 0 0 0 0 0 0 0 0 0 0 0 0 0 0 0 0 0 0 0 0 0 0 0 0 0 0 0 0 0 0 0 0 0 0 0 0 0 0 0 1 2 1 0 0 0 0 0 0 0 0 0 0 0
0 0 1 10 0 0 0 0 0 0 0 0 0 0 0 0 0 0 0 0 0 0 0 0 0 0 0 0 0 0 0 0 0 0 0 0 0 0 0 0 1 1 0 0 0 0 0 0 0 0 0 0 0 0
CIN
-3 -3 -3 0 0 -6 -5 0 0 0 0 0 0 0 0 0 -5 -1 -1 0 0 -1 0 0 0 0 0 0 0 0 0 0 0 0 0 0 0 -4 -6 0 0 0 0 0 0 -1 0 0 0 0 0 0 0 0
-5 -8 -5 -6 -4 -6 -7 0 0 0 0 0 0 0 -1 -7 -2 -1 -3 0 0 0 -1 0 0 0 0 0 0 0 0 0 0 0 -1 0 0 -1 -5 0 0 0 -12 -9 0 0 0 0 0 0 0 0 0 0
-4 -4 -4 -4 -4 -2 0 0 0 0 -2 -5 -7 0 -5 -2 -2 0 0 -4 -2 -2 -1 -1 -2 0 0 0 0 0 0 -1 -1 -1 -1 -2 -1 -10 0 0 0 0 0 0 0 0 0 0 0 0 0 0 0 0
-2 -3 -3 -11 0 0 0 0 0 -10 -1 0 -4 -13 -8 -13 -20 -4 0 -3 -1 0 0 0 0 0 0 0 0 0 0 0 0 0 0 0 -2 -1 0 0 -1 0 0 0 0 0 0 0 0 0 0 0 0 0
-4 -8 -8 -5 -2 -1 -2 0 0 -21 -16 -9 -9 -14 -19 -19 -13 -7 0 0 0 0 0 0 0 0 0 0 0 0 0 0 0 -1 0 0 0 -4 0 0 -1 0 0 0 0 0 0 0 0 0 0 0 0 0
-8 -3 -3 -5 -5 -6 -5 0 0 0 -16 -20 -9 -7 -11 -10 -28 -1 -1 -16 0 0 0 0 0 0 0 0 0 0 0 0 0 0 -1 -1 -6 -2 -4 0 0 0 0 0 0 0 0 0 0 0 0 0 0 0
-3 -1 0 0 -6 0 -10 -10 -3 -23 -18 -23 -34 -21 -9 -12 0 -1 -2 0 -2 0 0 -5 0 0 0 0 0 0 0 0 0 0 -1 0 0 -1 -3 -1 0 0 0 0 0 0 0 0 0 0 0 0 0 0
0 0 -1 0 0 0 0 -9 0 -14 -27 -24 0 0 0 0 -10 -1 -2 -15 -1 0 0 -3 0 0 0 0 0 0 0 0 -1 0 -1 -2 -1 0 0 0 0 0 0 0 0 0 0 0 0 0 0 0 0 0
0 0 0 0 0 0 -1 0 0 0 0 0 0 0 0 -1 -5 0 0 -8 -3 -3 0 0 0 0 0 0 0 0 0 -2 0 0 0 -4 -3 0 0 0 0 0 0 0 0 0 0 0 0 0 0 -3 -4 0
-1 -2 0 -1 0 0 0 0 0 0 0 0 0 -1 -19 -4 0 0 -3 0 -9 0 0 -1 0 0 0 0 -10 -16 0 0 0 0 0 0 0 0 0 0 0 0 0 0 0 0 0 0 0 0 0 0 0 0
-3 -1 -3 -2 -1 -1 0 0 0 0 -4 -2 0 -1 0 0 -1 0 0 0 -3 0 0 0 0 0 0 0 -2 -1 0 0 0 0 0 0 0 0 0 0 0 0 0 0 0 0 0 0 0 0 0 0 0 0
-1 -1 -1 -1 0 0 0 0 0 0 0 0 0 -1 0 0 -1 0 -1 0 -2 -1 0 0 0 0 0 -1 -1 0 0 0 0 -1 0 0 0 0 0 0 0 0 0 0 0 0 0 0 0 0 0 0 0 0
0 0 -1 0 0 0 0 0 0 0 0 -1 0 0 0 0 -1 -1 0 0 0 0 -1 0 0 0 0 0 0 0 0 0 0 0 0 0 0 0 0 0 0 0 0 0 0 0 0 0 0 0 0 0 0 0
-3 -1 -1 0 0 0 0 0 0 0 0 0 0 0 -1 0 0 0 0 -11 0 0 0 -1 -1 0 0 0 0 0 0 0 0 0 0 0 0 0 0 0 0 0 0 0 0 0 0 0 0 0 0 0 0 0
-3 -1 0 0 0 0 0 0 0 0 0 -2 0 0 0 0 0 -2 0 -21 0 0 -7 -3 -1 0 0 0 0 0 0 0 0 0 0 0 0 0 0 0 0 0 0 0 0 0 0 0 0 0 0 0 0 0
-1 -2 0 0 0 0 0 0 0 0 0 0 -3 0 0 0 0 0 0 0 0 0 -1 -1 0 0 0 0 0 0 0 0 0 0 0 0 0 0 0 0 0 0 0 0 0 0 0 0 0 0 0 0 0 0
-3 -1 -1 0 0 0 0 0 -1 0 0 -5 0 0 0 0 0 0 0 0 0 0 0 0 0 -10 0 0 0 0 0 0 -2 0 -1 0 0 0 0 0 0 0 0 0 0 0 0 0 0 0 0 0 0 0
-1 0 0 0 0 -1 -1 0 0 0 0 0 0 0 0 0 0 0 0 0 0 0 -4 -4 0 0 -1 0 0 0 0 0 0 0 0 0 0 0 0 0 0 0 0 0 0 0 0 0 0 0 0 0 0 0
0 -1 0 0 0 0 -1 0 0 0 0 0 0 0 0 0 0 0 0 -6 0 -8 0 0 0 0 0 0 0 0 0 0 0 0 0 0 0 0 0 0 0 0 0 0 0 0 0 0 0 0 0 0 0 0
0 0 0 0 0 0 0 -2 0 0 0 -9 0 0 0 0 0 0 0 0 -11 -1 -3 0 0 0 0 0 0 0 0 0 0 0 0 0 0 0 0 0 0 0 0 0 0 0 0 0 0 0 0 0 0 0
0 0 0 0 0 0 0 -1 -1 -3 0 0 0 0 0 0 0 -11 -7 0 -1 -1 0 0 0 0 0 0 0 0 0 0 0 0 0 0 0 0 0 0 0 0 0 0 0 0 0 0 0 0 0 0 0 0
0 -4 0 0 0 0 0 0 0 0 0 0 0 0 0 0 0 0 0 -2 -2 0 0 0 0 0 0 0 0 0 0 0 0 0 0 0 0 0 -1 0 0 0 0 0 0 0 0 0 0 0 0 0 0 0
0 0 -15 0 0 -2 -3 0 0 0 -5 -4 -10 -11 -7 -3 0 0 -4 0 0 0 0 0 0 0 0 0 0 0 0 0 0 0 0 0 0 0 0 -2 0 0 0 0 0 0 0 0 0 0 0 0 0 0
0 -5 -5 -2 -4 -9 0 0 0 0 -2 -10 -9 -4 0 0 0 0 0 0 0 0 0 0 0 0 0 0 0 0 0 0 0 0 0 0 0 0 0 0 0 0 0 0 0 0 0 0 0 0 0 0 0 0
-3 0 0 -11 -11 -1 0 0 0 0 0 -1 -5 -8 -13 0 0 0 0 0 0 0 0 0 0 0 0 0 0 0 0 0 0 0 0 0 0 0 0 0 0 0 0 0 0 0 0 0 0 0 0 0 0 0
0 0 0 0 0 0 0 0 0 0 0 0 -3 -16 -1 0 0 0 0 0 0 0 0 0 0 0 0 0 0 0 0 0 0 0 0 0 0 0 0 0 0 0 0 0 0 0 0 0 0 0 0 0 0 0
0 0 0 0 0 0 0 0 0 0 0 -3 -8 -12 0 -4 0 0 0 0 0 0 0 0 0 0 0 0 0 0 0 0 0 0 0 0 0 0 0 0 0 0 0 0 0 0 0 0 0 0 0 0 0 0
0 0 0 0 0 0 0 0 0 0 0 0 -12 -9 -11 0 0 0 0 0 0 0 0 0 0 0 0 0 0 0 0 0 0 0 0 0 0 0 0 0 0 0 0 0 0 0 0 0 0 0 0 0 0 0
0 0 0 0 0 0 0 0 0 0 0 0 0 0 0 0 0 0 0 0 0 0 0 0 0 0 0 0 0 0 0 0 0 0 0 0 -4 0 0 0 0 0 0 0 0 0 0 0 0 0 0 0 0 0
0 0 0 0 0 0 0 0 0 0 0 0 0 0 0 0 0 0 0 0 0 0 0 0 0 0 0 0 0 0 0 0 0 0 0 0 0 0 0 0 0 0 0 0 0 0 0 0 0 0 0 0 0 0
0 0 0 0 0 0 0 0 0 0 0 0 0 0 0 0 0 0 0 0 0 0 0 -2 0 0 0 0 0 0 0 0 0 0 0 0 0 0 0 0 0 0 0 0 0 0 0 0 0 0 0 0 0 0
0 0 -1 0 0 0 0 0 0 0 0 0 0 0 0 0 0 0 0 0 0 0 0 0 0 0 0 0 0 0 0 0 0 0 0 0 0 0 0 0 0 0 0 0 0 0 0 0 0 0 0 0 0 0
0 0 -1 -6 -2 0 0 0 0 0 0 0 0 0 0 0 0 0 0 0 0 0 0 0 0 0 0 0 0 0 0 0 0 0 0 0 0 0 0 0 0 0 0 0 0 0 0 0 0 0 0 0 0 0
Wind_Speed
14 21 21 22 24 23 21 22 23 24 25 25 25 24 24 20 15 14 17 11 13 21 23 21 19 22 24 25 28 26 32 26 25 26 28 29 31 29 32 33 35 37 36 35 34 39 38 26 33 34 33 38 37 38
14 23 26 25 23 24 24 24 24 25 26 27 28 28 27 22 16 10 18 12 9 18 21 20 18 14 16 19 25 24 25 26 26 28 27 27 31 34 34 41 30 35 29 34 33 37 41 40 41 38 40 48 43 40
20 26 27 24 22 24 25 25 25 26 28 28 29 30 28 22 14 8 11 11 11 20 23 18 15 15 14 16 16 25 29 26 27 24 30 30 35 30 36 36 36 35 30 37 38 39 41 51 44 41 43 48 42 41
21 26 26 25 25 26 26 26 25 26 27 29 30 28 26 22 12 4 7 7 10 18 25 24 16 17 15 9 13 16 18 17 19 21 26 29 32 25 34 33 34 29 34 35 44 43 49 52 53 47 46 48 39 43
20 26 28 26 23 21 21 22 24 25 26 26 25 21 18 14 11 8 5 7 5 9 21 23 17 11 10 8 11 12 13 12 13 17 20 23 24 25 28 31 28 25 27 40 43 44 43 52 55 49 44 46 45 44
23 23 20 19 19 20 21 22 24 25 25 24 23 19 15 15 15 15 17 8 7 7 13 21 12 8 4 3 7 7 10 8 8 13 11 10 15 15 15 26 39 37 23 25 32 31 43 46 51 52 45 47 41 41
25 26 24 23 22 22 22 23 23 24 24 23 22 21 20 16 12 12 13 16 8 8 11 13 12 10 12 9 7 4 0 3 6 13 23 24 21 14 19 29 35 32 28 27 25 27 32 26 28 44 41 35 29 38
28 28 27 25 24 23 23 23 24 24 24 23 24 24 24 24 16 12 5 10 12 10 8 9 8 14 13 13 13 9 5 9 15 17 11 12 10 8 17 24 25 26 25 25 26 27 29 35 29 35 35 41 43 39
29 29 29 28 26 25 24 24 24 24 23 23 23 25 21 12 10 12 15 8 9 4 7 7 9 13 13 10 6 5 8 8 6 8 8 3 8 9 17 23 28 29 28 32 29 27 26 30 30 32 37 42 41 34
30 30 33 30 29 27 26 25 24 23 23 22 20 16 14 12 9 10 14 13 11 6 6 5 5 3 12 6 4 5 7 6 2 1 5 2 7 14 13 19 24 25 25 28 21 22 23 23 25 32 38 34 30 28
29 29 29 29 29 27 26 25 24 22 19 17 17 15 13 6 10 12 10 8 8 14 8 8 8 6 6 5 4 7 7 7 6 8 8 6 6 12 20 19 14 12 8 9 14 6 17 26 30 35 37 33 27 20
31 30 29 31 30 28 26 25 23 20 17 18 19 11 10 12 11 10 7 9 6 10 13 10 8 7 7 10 7 9 7 9 7 10 7 6 6 21 16 14 11 10 9 8 24 12 5 24 28 19 21 21 17 12
28 30 29 30 30 29 27 25 23 22 21 16 16 12 11 11 9 8 4 5 7 12 12 13 13 14 12 11 9 13 9 7 3 10 6 9 14 16 12 10 8 14 12 11 15 22 23 22 19 18 16 17 18 18
27 28 30 30 29 29 28 26 23 19 17 18 17 17 14 12 10 4 3 6 11 14 15 15 20 17 15 11 10 13 9 11 9 6 3 9 8 7 6 9 12 13 10 25 16 16 22 22 24 24 21 22 23 20
26 28 30 32 31 29 28 24 23 19 20 22 20 20 17 16 13 9 4 10 12 14 15 17 18 16 16 15 12 15 16 16 17 25 22 20 11 14 18 21 34 32 38 34 33 32 30 32 31 25 19 23 24 23
25 27 28 33 33 29 26 23 21 21 23 23 25 21 19 14 13 7 5 3 8 8 9 14 15 16 12 16 17 18 20 20 21 22 17 18 19 24 27 28 29 28 31 31 31 29 28 27 26 25 23 21 19 17
24 22 18 17 21 23 21 20 21 25 26 26 27 26 25 21 19 12 9 7 7 9 9 10 9 9 14 15 20 18 22 24 22 19 18 18 20 22 22 23 23 25 25 25 25 25 24 22 23 22 21 17 18 18
24 23 22 18 16 16 22 24 25 27 30 30 28 25 23 23 22 20 1 7 9 16 13 13 10 10 9 9 9 14 18 19 16 15 15 17 18 19 20 20 20 20 20 20 20 20 21 21 20 19 18 17 16 16
27 26 25 23 21 22 24 26 27 28 30 27 28 28 25 25 25 26 26 12 22 18 16 14 13 13 12 11 9 10 12 14 14 15 16 17 18 19 19 19 19 18 18 17 17 17 16 16 16 16 15 14 14 13
29 31 31 31 25 24 26 26 25 31 29 24 24 24 23 24 23 23 23 22 20 17 13 14 14 12 11 10 11 12 14 15 16 16 16 16 17 18 18 18 19 19 18 17 16 15 14 13 13 12 12 12 12 11
26 25 26 23 25 28 26 25 26 29 28 31 25 22 23 21 21 20 20 20 20 19 11 9 6 8 10 10 11 12 14 15 15 15 14 15 15 15 16 17 17 17 17 17 17 16 15 13 12 12 12 12 11 11
22 20 19 25 27 27 30 27 24 22 22 22 22 24 26 25 23 24 21 22 22 20 17 10 7 7 9 8 9 10 13 13 13 12 13 13 13 14 14 14 15 15 15 15 15 15 15 14 14 13 12 11 11 10
23 21 22 24 27 30 31 28 28 26 25 24 20 23 23 22 22 18 23 23 24 20 15 12 8 7 8 8 8 9 10 10 11 11 11 12 12 12 13 12 13 13 13 12 13 13 14 14 14 14 13 12 11 10
22 23 26 28 30 31 28 29 30 27 26 23 23 26 23 22 19 23 25 25 23 17 12 9 6 8 9 6 6 7 8 9 9 9 10 11 11 11 11 11 11 11 11 11 11 11 12 12 13 13 12 11 10 10
25 28 27 33 29 31 30 29 30 32 33 25 24 24 22 20 23 25 25 24 20 16 13 8 6 4 3 3 4 6 7 8 8 8 9 10 10 10 11 11 10 10 10 10 10 10 10 11 12 12 12 12 11 11
31 29 29 31 31 31 31 32 32 30 30 32 30 25 23 23 24 26 24 22 21 16 12 7 6 5 5 3 2 3 6 6 6 6 7 9 10 10 10 10 10 10 9 9 10 9 9 10 11 12 13 13 14 14
33 31 30 27 28 28 29 29 27 29 29 29 28 26 25 28 28 25 21 20 18 16 13 13 12 10 8 9 7 2 3 5 6 4 5 8 8 9 9 9 10 9 10 10 11 11 12 12 12 13 15 16 16 16
32 30 33 30 30 28 28 28 28 29 30 25 23 29 29 29 29 22 20 18 12 11 13 14 14 13 12 12 12 8 2 2 5 7 8 5 5 8 9 9 8 8 10 11 12 12 13 13 14 15 17 18 18 18
33 29 28 31 29 29 29 28 28 25 23 23 27 28 27 24 22 21 18 16 15 17 18 17 17 16 15 14 14 13 6 1 1 3 3 3 2 4 7 8 7 7 8 9 11 12 13 13 14 14 15 16 16 15
34 30 31 30 32 33 28 25 24 21 20 20 20 21 23 23 21 19 18 18 19 18 17 17 15 15 15 15 15 14 14 11 10 7 4 2 2 3 4 8 9 8 7 7 8 8 9 9 9 9 10 10 11 11
32 33 34 33 33 31 28 24 23 22 22 23 22 24 24 22 21 20 19 19 17 16 16 16 16 16 16 16 16 15 15 16 14 13 12 11 6 3 4 6 8 8 8 6 6 7 8 7 7 7 8 8 9 9
34 36 35 36 33 28 26 28 27 27 26 26 26 24 24 24 26 23 21 20 18 18 17 15 15 15 14 14 14 14 15 16 12 11 11 9 7 4 2 4 5 6 8 8 6 6 7 6 6 6 7 8 9 8
34 34 35 33 31 31 30 28 29 29 29 30 29 26 26 26 28 24 21 21 20 16 15 14 14 14 14 15 15 15 16 16 15 15 13 12 8 4 1 1 3 5 6 7 7 8 9 7 5 5 5 7 8 7
Wind_Direction
300 274 271 273 272 268 270 270 272 275 278 281 283 285 287 293 300 303 309 307 307 311 311 313 314 311 315 315 313 319 319 317 315 314 310 302 300 302 301 300 299 295 293 287 286 283 282 305 300 290 298 299 302 304
300 276 269 270 268 266 268 271 272 274 275 276 278 281 284 291 295 295 305 309 303 308 318 332 324 301 295 301 311 313 308 308 312 310 312 313 307 306 303 299 305 297 297 295 288 286 290 291 293 296 298 290 296 302
287 273 265 268 269 267 268 268 269 273 274 276 277 280 284 291 293 274 300 319 322 314 313 311 316 318 302 286 294 301 304 302 298 300 304 305 300 305 300 299 299 301 294 289 292 289 287 283 290 290 289 284 292 299
281 266 265 267 268 265 265 267 271 274 277 277 278 282 286 292 301 279 295 316 316 327 325 331 339 328 328 279 281 274 279 303 308 307 300 303 300 309 303 302 299 296 304 294 289 289 287 283 279 285 281 282 293 293
276 266 262 263 265 269 271 273 276 278 279 281 287 290 295 306 317 323 313 306 284 320 334 336 343 303 289 295 266 261 253 270 290 304 304 302 308 304 301 304 266 268 269 292 290 293 290 284 276 281 283 282 289 289
265 265 266 267 268 270 274 278 279 279 281 283 284 291 299 307 321 331 333 330 211 193 345 346 18 337 335 298 273 263 235 252 266 318 312 300 257 241 256 262 259 256 275 271 262 278 288 284 281 277 280 281 287 282
261 259 261 264 267 272 276 278 278 278 278 279 281 284 290 305 323 329 339 350 68 104 4 4 21 53 33 21 12 4 229 213 218 222 230 240 246 244 258 262 271 270 268 264 262 256 250 254 276 278 278 283 291 278
258 256 257 260 264 269 273 276 278 276 275 276 276 280 284 289 313 317 306 325 332 20 30 21 21 11 25 24 30 54 142 185 209 219 225 243 256 259 262 273 277 279 280 274 266 253 244 240 239 236 281 278 254 254
257 255 253 255 259 266 268 271 273 272 272 273 279 282 293 314 323 331 314 330 320 96 56 70 38 21 59 53 167 152 176 204 184 212 232 251 258 255 276 285 285 282 278 277 270 253 240 229 226 223 229 237 244 243
254 252 245 251 254 256 261 267 268 269 268 276 287 292 302 319 339 327 333 332 330 53 115 155 93 123 231 201 114 91 104 129 137 118 69 111 260 267 285 302 296 292 291 284 280 246 225 216 210 211 215 231 240 242
251 250 248 248 249 252 258 263 264 268 275 278 276 286 308 11 329 336 357 7 356 335 82 129 148 176 116 128 97 116 116 115 108 83 96 81 62 319 320 318 329 320 330 10 41 216 203 198 193 204 219 227 230 222
248 248 247 244 247 251 255 258 259 264 270 271 274 298 307 317 334 337 355 347 2 355 336 43 91 94 103 52 83 115 111 116 111 65 98 117 323 321 329 334 335 22 40 38 352 354 132 154 168 202 206 208 193 172
250 247 247 246 247 249 251 251 252 261 272 278 270 289 305 315 322 339 10 23 2 331 349 353 10 10 26 46 62 28 93 133 231 93 132 76 339 322 339 352 14 63 71 27 35 36 51 66 78 86 102 106 117 123
255 253 248 247 247 246 247 248 252 264 264 266 268 274 288 308 323 2 113 3 326 322 329 337 330 347 6 43 67 27 76 48 91 149 118 15 357 21 29 340 73 73 46 23 39 55 59 69 71 76 96 104 106 112
259 258 249 246 244 243 244 247 251 259 258 259 269 271 282 291 308 343 92 345 338 328 325 326 325 334 341 357 30 10 5 19 18 338 16 31 71 76 77 76 50 31 51 42 45 52 57 64 68 73 82 80 83 84
261 262 252 243 240 240 242 245 250 253 257 260 258 268 282 301 304 337 13 27 359 21 19 339 337 335 355 338 331 329 334 341 353 4 33 46 58 36 38 42 41 37 44 49 51 53 56 60 64 69 70 71 73 75
263 255 265 266 238 236 238 242 247 250 253 255 256 262 269 282 294 329 2 77 75 63 75 74 84 79 356 340 314 328 318 330 349 4 17 25 27 34 39 36 34 40 44 45 49 50 54 57 63 65 67 63 67 68
251 256 256 256 249 236 238 243 249 251 249 250 256 261 268 273 280 295 292 102 103 153 130 148 108 113 106 86 79 11 351 352 8 12 19 27 32 31 33 33 31 34 35 37 43 50 56 60 60 60 62 63 62 59
253 254 251 250 248 243 241 244 248 250 249 256 257 260 265 269 266 253 234 276 178 191 164 147 148 147 140 119 100 77 65 71 56 46 45 47 45 42 42 42 39 38 38 39 43 47 48 49 56 59 57 56 53 51
256 252 246 242 241 241 245 247 247 246 249 258 258 259 264 267 268 255 250 253 263 284 150 151 155 139 111 109 124 124 109 96 83 73 63 58 53 54 54 54 50 50 46 46 45 45 46 43 33 35 40 42 47 49
261 250 242 237 237 241 249 248 248 250 251 250 257 260 264 268 262 258 260 261 269 278 306 137 66 39 35 58 72 83 104 106 109 100 92 80 76 68 65 62 59 56 57 60 62 60 54 46 40 39 37 34 34 40
251 246 245 236 238 241 245 248 250 254 253 258 254 254 260 260 259 255 263 265 268 275 288 321 358 20 27 44 58 88 109 107 106 92 89 87 84 80 82 72 69 64 65 68 69 68 66 62 58 52 47 41 39 46
251 244 244 237 239 239 244 244 244 250 250 253 257 254 258 259 259 263 263 265 267 276 292 307 329 354 8 25 54 84 106 101 102 101 99 101 91 89 94 91 80 77 69 58 61 65 68 74 74 69 63 53 51 50
244 242 239 238 237 238 243 240 239 247 250 250 250 251 257 260 262 260 266 269 274 280 289 301 320 331 344 28 76 102 102 99 95 93 103 108 102 101 103 102 89 83 77 70 70 70 75 80 80 78 78 71 63 61
239 238 241 236 238 238 238 239 238 240 242 249 251 254 257 262 261 263 267 273 275 277 280 287 304 327 358 48 83 111 102 106 103 98 112 117 105 101 108 111 98 91 90 81 76 74 78 85 88 92 94 91 87 86
236 239 237 236 235 236 237 237 239 242 243 245 251 256 258 261 262 265 269 273 276 273 270 271 287 299 312 335 28 121 132 122 107 100 113 131 131 127 123 122 119 116 116 105 98 95 97 100 105 113 115 115 113 111
236 238 239 243 240 241 240 241 244 241 244 247 244 250 253 255 260 266 274 280 279 278 276 281 287 293 297 302 311 323 102 118 125 112 107 129 135 136 133 137 137 126 124 122 123 123 124 125 125 129 132 130 131 129
239 241 236 236 238 240 240 238 241 242 244 251 248 248 252 255 260 271 275 281 288 283 282 285 289 292 297 301 304 312 320 26 5 15 32 49 106 140 147 145 132 120 129 133 136 133 132 132 134 135 141 144 141 139
237 240 241 237 238 240 241 242 243 248 253 250 249 252 256 265 270 273 275 276 282 283 280 281 283 285 287 291 297 300 308 332 354 355 17 33 74 141 145 142 131 123 119 125 131 135 135 132 132 133 138 140 138 134
237 239 240 240 239 239 244 248 249 255 261 261 262 263 264 267 273 276 274 277 278 278 280 280 282 284 283 283 284 287 292 300 308 318 327 354 57 67 126 140 141 134 125 120 118 115 114 109 101 100 111 119 126 130
239 239 241 242 243 245 249 251 255 258 260 262 265 263 263 267 271 274 274 276 277 276 277 279 281 283 284 286 288 286 283 290 298 307 318 329 357 32 112 134 135 134 134 128 126 129 125 119 118 119 125 131 137 138
237 238 238 240 244 248 250 251 253 254 257 259 260 263 264 265 264 267 271 272 269 269 271 275 279 284 290 293 295 297 299 297 299 301 309 319 331 354 79 123 135 134 136 136 135 142 145 139 133 135 138 143 146 147
239 240 240 241 243 243 247 249 251 253 255 256 258 260 261 262 263 266 272 270 266 265 266 272 278 283 288 291 294 296 298 301 303 302 301 310 323 332 347 121 145 149 147 144 141 148 153 153 151 150 149 153 154 154